Time,TemperatureF,DewpointF,PressureIn,WindDirection,WindDirectionDegrees,WindSpeedMPH,WindSpeedGustMPH,Humidity,HourlyPrecipIn,Conditions,Clouds,dailyrainin,SolarRadiationWatts/m^2,SoftwareType,DateUTC
2013-03-03 00:05:00,27.4,11.0,29.95,South,171,3.0,5.0,50,0.00,,,0.00,0,weatherlink.com 1.10,2013-03-03 07:05:00,
2013-03-03 00:20:00,28.6,11.0,29.94,SSE,155,3.0,7.0,48,0.00,,,0.00,0,weatherlink.com 1.10,2013-03-03 07:20:00,
2013-03-03 00:35:00,28.6,11.0,29.93,South,178,1.0,7.0,48,0.00,,,0.00,0,weatherlink.com 1.10,2013-03-03 07:35:00,
2013-03-03 00:50:00,28.7,12.0,29.92,South,184,1.0,6.0,49,0.00,,,0.00,0,weatherlink.com 1.10,2013-03-03 07:50:00,
2013-03-03 01:05:00,28.8,12.0,29.91,WSW,252,2.0,7.0,49,0.00,,,0.00,0,weatherlink.com 1.10,2013-03-03 08:05:00,
2013-03-03 01:20:00,29.0,12.0,29.89,WNW,284,1.0,7.0,50,0.00,,,0.00,0,weatherlink.com 1.10,2013-03-03 08:20:00,
2013-03-03 01:35:00,29.2,12.0,29.88,NE,42,0.0,11.0,49,0.00,,,0.00,0,weatherlink.com 1.10,2013-03-03 08:35:00,
2013-03-03 01:50:00,28.9,12.0,29.87,WSW,250,3.0,7.0,50,0.00,,,0.00,0,weatherlink.com 1.10,2013-03-03 08:50:00,
2013-03-03 02:05:00,28.2,12.0,29.86,WNW,290,0.0,4.0,50,0.00,,,0.00,0,weatherlink.com 1.10,2013-03-03 09:05:00,
2013-03-03 02:20:00,27.1,11.0,29.84,NNE,33,3.0,7.0,50,0.00,,,0.00,0,weatherlink.com 1.10,2013-03-03 09:20:00,
2013-03-03 02:35:00,28.3,10.0,29.82,WNW,282,5.0,16.0,46,0.00,,,0.00,0,weatherlink.com 1.10,2013-03-03 09:35:00,
2013-03-03 02:50:00,29.0,9.0,29.79,WSW,240,3.0,13.0,44,0.00,,,0.00,0,weatherlink.com 1.10,2013-03-03 09:50:00,
2013-03-03 03:05:00,29.4,9.0,29.78,West,265,4.0,17.0,43,0.00,,,0.00,0,weatherlink.com 1.10,2013-03-03 10:05:00,
2013-03-03 03:20:00,29.7,9.0,29.77,West,266,12.0,17.0,42,0.00,,,0.00,0,weatherlink.com 1.10,2013-03-03 10:20:00,
2013-03-03 03:35:00,29.7,9.0,29.75,WNW,290,9.0,19.0,41,0.00,,,0.00,0,weatherlink.com 1.10,2013-03-03 10:35:00,
2013-03-03 03:50:00,31.5,8.0,29.74,WNW,294,6.0,18.0,38,0.00,,,0.00,0,weatherlink.com 1.10,2013-03-03 10:50:00,
2013-03-03 04:05:00,32.1,8.0,29.74,West,276,6.0,23.0,37,0.00,,,0.00,0,weatherlink.com 1.10,2013-03-03 11:05:00,
2013-03-03 04:20:00,32.9,9.0,29.72,NW,308,7.0,21.0,36,0.00,,,0.00,0,weatherlink.com 1.10,2013-03-03 11:20:00,
2013-03-03 04:36:00,32.6,9.0,29.71,WSW,250,11.0,24.0,37,0.00,,,0.00,0,weatherlink.com 1.10,2013-03-03 11:36:00,
2013-03-03 04:51:00,31.4,10.0,29.70,NNW,336,9.0,18.0,40,0.00,,,0.00,0,weatherlink.com 1.10,2013-03-03 11:51:00,
2013-03-03 05:06:00,30.3,10.0,29.71,West,281,5.0,18.0,42,0.00,,,0.00,0,weatherlink.com 1.10,2013-03-03 12:06:00,
2013-03-03 05:21:00,31.0,9.0,29.69,West,277,5.0,19.0,40,0.00,,,0.00,0,weatherlink.com 1.10,2013-03-03 12:21:00,
2013-03-03 05:36:00,30.7,9.0,29.69,WSW,257,3.0,14.0,41,0.00,,,0.00,0,weatherlink.com 1.10,2013-03-03 12:36:00,
2013-03-03 05:51:00,29.9,9.0,29.68,West,279,4.0,18.0,42,0.00,,,0.00,0,weatherlink.com 1.10,2013-03-03 12:51:00,
2013-03-03 06:06:00,30.4,9.0,29.66,West,263,5.0,14.0,41,0.00,,,0.00,0,weatherlink.com 1.10,2013-03-03 13:06:00,
2013-03-03 06:21:00,30.4,9.0,29.65,SW,229,10.0,17.0,41,0.00,,,0.00,0,weatherlink.com 1.10,2013-03-03 13:21:00,
2013-03-03 06:36:00,30.8,9.0,29.65,West,263,8.0,14.0,40,0.00,,,0.00,0,weatherlink.com 1.10,2013-03-03 13:36:00,
2013-03-03 06:51:00,30.2,8.0,29.64,WNW,302,3.0,12.0,40,0.00,,,0.00,12,weatherlink.com 1.10,2013-03-03 13:51:00,
2013-03-03 07:06:00,30.3,9.0,29.65,West,280,5.0,14.0,40,0.00,,,0.00,25,weatherlink.com 1.10,2013-03-03 14:06:00,
2013-03-03 07:21:00,30.6,9.0,29.65,West,261,2.0,7.0,40,0.00,,,0.00,53,weatherlink.com 1.10,2013-03-03 14:21:00,
2013-03-03 07:36:00,31.1,8.0,29.66,WSW,240,0.0,10.0,38,0.00,,,0.00,185,weatherlink.com 1.10,2013-03-03 14:36:00,
2013-03-03 07:51:00,33.5,9.0,29.65,West,276,0.0,6.0,36,0.00,,,0.00,172,weatherlink.com 1.10,2013-03-03 14:51:00,
2013-03-03 08:06:00,33.3,9.0,29.64,WSW,255,1.0,10.0,37,0.00,,,0.00,269,weatherlink.com 1.10,2013-03-03 15:06:00,
2013-03-03 08:21:00,35.7,11.0,29.63,WSW,252,2.0,7.0,36,0.00,,,0.00,429,weatherlink.com 1.10,2013-03-03 15:21:00,
2013-03-03 08:36:00,35.5,10.0,29.63,WNW,296,2.0,11.0,35,0.00,,,0.00,353,weatherlink.com 1.10,2013-03-03 15:36:00,
2013-03-03 08:51:00,36.3,13.0,29.62,NW,310,5.0,17.0,38,0.00,,,0.00,464,weatherlink.com 1.10,2013-03-03 15:51:00,
2013-03-03 09:06:00,37.6,13.0,29.62,WNW,301,3.0,11.0,37,0.00,,,0.00,512,weatherlink.com 1.10,2013-03-03 16:06:00,
2013-03-03 09:21:00,36.7,13.0,29.61,NNE,13,3.0,9.0,38,0.00,,,0.00,543,weatherlink.com 1.10,2013-03-03 16:21:00,
2013-03-03 09:36:00,38.0,13.0,29.60,NW,309,5.0,9.0,36,0.00,,,0.00,513,weatherlink.com 1.10,2013-03-03 16:36:00,
2013-03-03 09:51:00,38.7,15.0,29.60,West,265,4.0,9.0,38,0.00,,,0.00,628,weatherlink.com 1.10,2013-03-03 16:51:00,
2013-03-03 10:06:00,39.6,15.0,29.59,NW,317,4.0,14.0,36,0.00,,,0.00,308,weatherlink.com 1.10,2013-03-03 17:06:00,
2013-03-03 10:21:00,38.9,15.0,29.57,West,269,5.0,13.0,38,0.00,,,0.00,452,weatherlink.com 1.10,2013-03-03 17:21:00,
2013-03-03 10:37:00,39.0,15.0,29.57,West,263,7.0,12.0,38,0.00,,,0.00,371,weatherlink.com 1.10,2013-03-03 17:37:00,
2013-03-03 10:52:00,38.0,14.0,29.57,NW,313,6.0,14.0,38,0.00,,,0.00,422,weatherlink.com 1.10,2013-03-03 17:52:00,
2013-03-03 11:07:00,38.2,13.0,29.57,WNW,297,7.0,16.0,36,0.00,,,0.00,338,weatherlink.com 1.10,2013-03-03 18:07:00,
2013-03-03 11:22:00,37.7,15.0,29.57,West,266,6.0,17.0,40,0.00,,,0.00,404,weatherlink.com 1.10,2013-03-03 18:22:00,
2013-03-03 11:37:00,37.9,14.0,29.56,West,271,6.0,19.0,38,0.00,,,0.00,396,weatherlink.com 1.10,2013-03-03 18:37:00,
2013-03-03 11:52:00,39.1,16.0,29.55,NW,317,6.0,11.0,39,0.00,,,0.00,475,weatherlink.com 1.10,2013-03-03 18:52:00,
2013-03-03 12:07:00,40.9,17.0,29.55,WNW,288,4.0,10.0,38,0.00,,,0.00,960,weatherlink.com 1.10,2013-03-03 19:07:00,
2013-03-03 12:22:00,43.0,18.0,29.54,West,265,6.0,8.0,37,0.00,,,0.00,888,weatherlink.com 1.10,2013-03-03 19:22:00,
2013-03-03 12:37:00,43.4,20.0,29.54,NW,312,2.0,8.0,39,0.00,,,0.00,991,weatherlink.com 1.10,2013-03-03 19:37:00,
2013-03-03 12:52:00,43.8,20.0,29.52,WNW,302,4.0,11.0,38,0.00,,,0.00,485,weatherlink.com 1.10,2013-03-03 19:52:00,
2013-03-03 13:07:00,42.9,21.0,29.51,WNW,293,5.0,7.0,41,0.00,,,0.00,802,weatherlink.com 1.10,2013-03-03 20:07:00,
2013-03-03 13:22:00,42.5,20.0,29.50,NW,322,2.0,7.0,40,0.00,,,0.00,824,weatherlink.com 1.10,2013-03-03 20:22:00,
2013-03-03 13:37:00,43.5,19.0,29.50,WNW,291,2.0,9.0,37,0.00,,,0.00,729,weatherlink.com 1.10,2013-03-03 20:37:00,
2013-03-03 13:52:00,43.1,18.0,29.49,NW,312,3.0,9.0,37,0.00,,,0.00,802,weatherlink.com 1.10,2013-03-03 20:52:00,
2013-03-03 14:07:00,41.9,18.0,29.47,WSW,258,4.0,9.0,38,0.00,,,0.00,571,weatherlink.com 1.10,2013-03-03 21:07:00,
2013-03-03 14:22:00,39.9,19.0,29.47,West,277,3.0,11.0,43,0.00,,,0.00,427,weatherlink.com 1.10,2013-03-03 21:22:00,
2013-03-03 14:37:00,39.2,19.0,29.48,WNW,296,3.0,12.0,44,0.00,,,0.00,155,weatherlink.com 1.10,2013-03-03 21:37:00,
2013-03-03 14:52:00,39.5,20.0,29.48,NW,316,8.0,12.0,46,0.00,,,0.00,128,weatherlink.com 1.10,2013-03-03 21:52:00,
2013-03-03 15:07:00,40.1,20.0,29.49,WNW,298,4.0,9.0,44,0.00,,,0.00,232,weatherlink.com 1.10,2013-03-03 22:07:00,
2013-03-03 15:22:00,39.3,20.0,29.50,NW,321,4.0,8.0,47,0.00,,,0.00,257,weatherlink.com 1.10,2013-03-03 22:22:00,
2013-03-03 15:37:00,39.5,22.0,29.50,West,274,1.0,4.0,49,0.00,,,0.00,323,weatherlink.com 1.10,2013-03-03 22:37:00,
2013-03-03 15:52:00,40.9,19.0,29.50,West,259,4.0,6.0,41,0.00,,,0.00,489,weatherlink.com 1.10,2013-03-03 22:52:00,
2013-03-03 16:07:00,40.2,20.0,29.49,WNW,289,2.0,7.0,45,0.00,,,0.00,135,weatherlink.com 1.10,2013-03-03 23:07:00,
2013-03-03 16:22:00,39.3,19.0,29.49,West,261,2.0,6.0,45,0.00,,,0.00,179,weatherlink.com 1.10,2013-03-03 23:22:00,
2013-03-03 16:37:00,38.3,20.0,29.50,WNW,291,1.0,7.0,47,0.00,,,0.00,72,weatherlink.com 1.10,2013-03-03 23:37:00,
2013-03-03 16:52:00,36.5,19.0,29.50,NW,313,3.0,7.0,49,0.00,,,0.00,86,weatherlink.com 1.10,2013-03-03 23:52:00,
2013-03-03 17:07:00,33.8,19.0,29.50,WNW,300,4.0,11.0,56,0.00,,,0.00,67,weatherlink.com 1.10,2013-03-04 00:07:00,
2013-03-03 17:22:00,32.1,19.0,29.48,NNW,333,5.0,12.0,59,0.00,,,0.00,46,weatherlink.com 1.10,2013-03-04 00:22:00,
2013-03-03 17:37:00,31.2,19.0,29.48,NW,311,8.0,14.0,61,0.00,,,0.00,25,weatherlink.com 1.10,2013-03-04 00:37:00,
2013-03-03 17:52:00,30.2,19.0,29.49,NW,323,2.0,7.0,64,0.00,,,0.00,5,weatherlink.com 1.10,2013-03-04 00:52:00,
2013-03-03 18:07:00,29.7,19.0,29.49,WSW,244,10.0,10.0,65,0.00,,,0.00,0,weatherlink.com 1.10,2013-03-04 01:07:00,
2013-03-03 18:22:00,29.4,19.0,29.50,WNW,288,4.0,11.0,65,0.00,,,0.00,0,weatherlink.com 1.10,2013-03-04 01:22:00,
2013-03-03 18:37:00,29.2,18.0,29.50,NNW,327,4.0,8.0,64,0.00,,,0.00,0,weatherlink.com 1.10,2013-03-04 01:37:00,
2013-03-03 18:52:00,28.6,18.0,29.51,NW,309,1.0,12.0,66,0.00,,,0.00,0,weatherlink.com 1.10,2013-03-04 01:52:00,
2013-03-03 19:07:00,28.5,19.0,29.52,NW,325,1.0,10.0,67,0.00,,,0.00,0,weatherlink.com 1.10,2013-03-04 02:07:00,
2013-03-03 19:22:00,28.5,19.0,29.52,WNW,302,3.0,11.0,68,0.00,,,0.00,0,weatherlink.com 1.10,2013-03-04 02:22:00,
2013-03-03 19:37:00,28.4,19.0,29.53,NW,319,2.0,7.0,68,0.00,,,0.00,0,weatherlink.com 1.10,2013-03-04 02:37:00,
2013-03-03 19:52:00,28.2,18.0,29.53,West,261,2.0,4.0,67,0.00,,,0.00,0,weatherlink.com 1.10,2013-03-04 02:52:00,
2013-03-03 20:07:00,28.3,19.0,29.53,WSW,254,0.0,3.0,67,0.00,,,0.00,0,weatherlink.com 1.10,2013-03-04 03:07:00,
2013-03-03 20:22:00,28.2,18.0,29.53,NW,317,2.0,4.0,67,0.00,,,0.00,0,weatherlink.com 1.10,2013-03-04 03:22:00,
2013-03-03 20:37:00,28.1,18.0,29.53,West,269,3.0,9.0,66,0.00,,,0.00,0,weatherlink.com 1.10,2013-03-04 03:37:00,
2013-03-03 20:52:00,27.5,18.0,29.53,West,266,2.0,6.0,67,0.00,,,0.00,0,weatherlink.com 1.10,2013-03-04 03:52:00,
2013-03-03 21:07:00,27.0,18.0,29.52,NW,314,2.0,6.0,69,0.00,,,0.00,0,weatherlink.com 1.10,2013-03-04 04:07:00,
2013-03-03 21:22:00,26.3,18.0,29.52,West,281,3.0,3.0,71,0.00,,,0.00,0,weatherlink.com 1.10,2013-03-04 04:22:00,
2013-03-03 21:37:00,26.4,17.0,29.52,West,259,2.0,5.0,69,0.00,,,0.00,0,weatherlink.com 1.10,2013-03-04 04:37:00,
2013-03-03 21:52:00,26.5,18.0,29.52,West,264,0.0,6.0,69,0.00,,,0.00,0,weatherlink.com 1.10,2013-03-04 04:52:00,
2013-03-03 22:07:00,26.1,18.0,29.50,West,261,3.0,5.0,71,0.00,,,0.00,0,weatherlink.com 1.10,2013-03-04 05:07:00,
2013-03-03 22:22:00,25.8,18.0,29.50,West,259,1.0,4.0,72,0.00,,,0.00,0,weatherlink.com 1.10,2013-03-04 05:22:00,
2013-03-03 22:37:00,25.7,18.0,29.49,WNW,292,1.0,13.0,73,0.00,,,0.00,0,weatherlink.com 1.10,2013-03-04 05:37:00,
2013-03-03 22:52:00,26.0,18.0,29.48,WNW,290,5.0,9.0,72,0.00,,,0.00,0,weatherlink.com 1.10,2013-03-04 05:52:00,
2013-03-03 23:07:00,25.9,18.0,29.48,SW,236,1.0,8.0,72,0.00,,,0.00,0,weatherlink.com 1.10,2013-03-04 06:07:00,
2013-03-03 23:22:00,25.9,18.0,29.48,West,275,2.0,8.0,72,0.00,,,0.00,0,weatherlink.com 1.10,2013-03-04 06:22:00,
2013-03-03 23:37:00,25.5,18.0,29.48,SSW,207,2.0,3.0,74,0.00,,,0.00,0,weatherlink.com 1.10,2013-03-04 06:37:00,
2013-03-03 23:53:00,25.1,18.0,29.48,South,174,4.0,5.0,75,0.00,,,0.00,0,weatherlink.com 1.10,2013-03-04 06:53:00,